Waarnemingen

Advertentie
Mijn weer
Cap Ferret, Frankrijk (7500): temperatuur & dauwpunt: 17.09.2018 03:00:00 - 23.09.2018 03:00:00 (CEST)Cap Ferret, Frankrijk (7500): windsnelheid & windstoten: 17.09.2018 03:00:00 - 23.09.2018 03:00:00 (CEST)Cap Ferret, Frankrijk (7500): windrichting: 17.09.2018 03:00:00 - 23.09.2018 03:00:00 (CEST)Cap Ferret, Frankrijk (7500): luchtdruk: 17.09.2018 03:00:00 - 23.09.2018 03:00:00 (CEST)Cap Ferret, Frankrijk (7500): zicht: 17.09.2018 03:00:00 - 23.09.2018 03:00:00 (CEST)Cap Ferret, Frankrijk (7500): neerslag: 17.09.2018 03:00:00 - 23.09.2018 03:00:00 (CEST)
Datum & Tijd tt [°C] td [°C] ff [km/u] ff [kn] fx [km/u] fx [kn] dd ppp [hPa] vv [km] rr [mm]
23.09.2018 03:00:00 18,9 17,7 12 7 18 10 ZZW 1024,0 - 0,0
23.09.2018 02:00:00 19,0 17,7 12 7 21 11 ZZW 1024,2 7 0,0
23.09.2018 01:00:00 18,9 17,4 13 7 18 10 Z 1024,2 - 0,0
23.09.2018 00:00:00 18,9 17,4 13 7 18 10 ZZW 1024,2 - 0,0
22.09.2018 23:00:00 18,8 16,9 14 7 17 9 Z 1023,9 15 0,0
22.09.2018 22:00:00 18,8 16,6 11 6 15 8 Z 1023,8 - 0,0
22.09.2018 21:00:00 19,3 16,5 12 6 16 8 Z 1023,4 - 0,0
22.09.2018 20:00:00 20,4 16,4 11 6 15 8 Z 1023,0 15 0,0
22.09.2018 19:00:00 22,6 16,6 8 5 16 9 ZZW 1023,1 - 0,0
22.09.2018 18:00:00 23,6 16,4 7 4 16 9 ZZW 1023,0 - 0,0
22.09.2018 17:00:00 24,4 15,6 9 5 14 8 WZW 1023,2 13 0,0
22.09.2018 16:00:00 24,1 15,8 9 5 14 8 W 1023,4 - 0,0
22.09.2018 15:00:00 23,4 15,4 8 5 15 8 WZW 1023,7 - 0,0
22.09.2018 14:00:00 22,2 14,1 8 4 16 9 ZW 1023,8 15 0,0
22.09.2018 13:00:00 22,0 13,4 5 3 19 10 ZZO 1024,0 - 0,0
22.09.2018 12:00:00 20,8 12,2 9 5 23 12 ZO 1024,0 - 0,0
22.09.2018 11:00:00 18,8 10,9 16 9 25 14 OZO 1024,1 - 0,0
22.09.2018 10:00:00 17,0 9,7 11 6 25 13 OZO 1024,4 - 0,0
22.09.2018 09:00:00 15,2 10,2 10 5 19 11 O 1024,1 - 0,0
22.09.2018 08:00:00 13,6 9,6 10 5 19 10 O 1024,1 10 0,0
22.09.2018 07:00:00 13,9 10,3 9 5 16 9 ONO 1024,1 - 0,0
22.09.2018 06:00:00 14,3 10,1 10 5 18 10 O 1023,8 - 0,0
22.09.2018 05:00:00 14,6 11,6 9 5 16 9 ONO 1024,2 10 0,0
22.09.2018 04:00:00 14,8 11,9 8 5 13 7 ONO 1024,7 - 0,0
22.09.2018 03:00:00 15,0 12,1 7 4 14 8 ONO 1024,9 - 0,0
22.09.2018 02:00:00 15,3 12,2 7 4 19 10 ONO 1025,4 10 0,0
22.09.2018 01:00:00 15,7 11,9 10 5 18 10 NNO 1025,4 - 0,0
22.09.2018 00:00:00 15,6 12,7 12 6 17 9 NNO 1025,2 - 0,0
21.09.2018 23:00:00 15,3 12,2 8 4 14 8 NNO 1024,8 15 0,0
21.09.2018 22:00:00 15,8 12,5 7 4 13 7 NNO 1024,6 - 0,0
21.09.2018 21:00:00 16,9 12,0 10 5 17 9 NNO 1024,2 - 0,0
21.09.2018 20:00:00 17,5 12,8 10 5 25 13 N 1023,5 10 0,0
21.09.2018 19:00:00 18,6 13,7 13 7 29 15 N 1022,9 - 0,0
21.09.2018 18:00:00 18,9 15,0 13 7 22 12 N 1022,5 - 0,0
21.09.2018 17:00:00 19,3 16,3 8 4 16 9 NW 1022,1 7 0,0
21.09.2018 16:00:00 19,1 16,5 9 5 16 9 NNW 1021,7 - 0,0
21.09.2018 15:00:00 18,3 16,5 9 5 26 14 NNW 1021,3 - 0,4
21.09.2018 14:00:00 18,4 17,1 14 8 27 15 NNW 1021,0 5 1,2
21.09.2018 13:00:00 18,4 16,7 14 7 39 21 N 1020,7 - 0,0
21.09.2018 12:00:00 19,8 17,0 17 9 35 19 N 1020,2 - 0,0
21.09.2018 11:00:00 20,6 17,8 19 10 29 16 ZW 1019,3 7 0,0
21.09.2018 10:00:00 19,7 17,8 18 10 28 15 ZW 1018,7 - 0,0
21.09.2018 09:00:00 19,6 18,6 18 10 27 15 ZZW 1018,1 - 0,0
21.09.2018 08:00:00 19,2 18,2 16 8 22 12 ZZW 1017,4 4,0 0,0
21.09.2018 07:00:00 19,1 17,9 14 7 23 12 ZW 1016,9 - 0,0
21.09.2018 06:00:00 19,1 17,9 16 9 26 14 ZW 1016,4 - 0,0
21.09.2018 05:00:00 19,3 18,1 17 9 25 13 WZW 1016,5 7 0,0
21.09.2018 04:00:00 19,0 17,8 15 8 20 11 ZW 1016,8 - 0,0
21.09.2018 03:00:00 19,1 17,9 13 7 19 10 ZW 1016,8 - 0,0
21.09.2018 02:00:00 18,7 17,4 10 5 16 9 ZW 1016,7 6 0,0
21.09.2018 01:00:00 18,8 17,5 13 7 17 9 WZW 1017,0 - 0,0
21.09.2018 00:00:00 18,4 16,6 7 4 16 9 W 1017,1 - 0,0
20.09.2018 23:00:00 18,9 17,0 14 8 17 9 NW 1017,2 8 0,0
20.09.2018 22:00:00 18,9 15,9 10 5 14 8 NW 1017,1 - 0,0
20.09.2018 21:00:00 19,8 16,4 11 6 27 15 NNO 1016,1 - 0,0
20.09.2018 20:00:00 20,6 17,2 16 8 33 18 N 1016,2 6 0,0
20.09.2018 19:00:00 21,9 17,5 19 10 36 19 NNW 1016,5 - 0,0
20.09.2018 18:00:00 23,4 17,4 17 9 36 20 NNW 1016,5 - 0,0
20.09.2018 17:00:00 24,0 17,3 23 13 40 21 NNW 1016,8 7 0,0
20.09.2018 16:00:00 24,1 17,3 26 14 38 20 NNW 1017,2 - 0,0
20.09.2018 15:00:00 24,2 17,0 22 12 36 19 NNW 1017,8 - 0,0
20.09.2018 14:00:00 25,5 16,4 16 9 25 14 NW 1018,4 12 0,0
20.09.2018 13:00:00 25,7 15,7 14 7 20 11 NNO 1019,3 - 0,0
20.09.2018 12:00:00 25,3 15,9 9 5 18 10 NO 1020,1 - 0,0
20.09.2018 11:00:00 23,1 16,4 7 4 14 8 ONO 1020,5 15 0,0
20.09.2018 10:00:00 21,2 15,9 9 5 15 8 ONO 1020,7 - 0,0
20.09.2018 09:00:00 18,7 16,1 6 3 12 7 ONO 1020,6 - 0,0
20.09.2018 08:00:00 16,5 15,0 8 4 13 7 ONO 1020,7 8 0,0
20.09.2018 07:00:00 16,7 14,9 8 4 14 8 ONO 1020,7 - 0,0
20.09.2018 06:00:00 17,5 15,7 11 6 16 9 NO 1021,1 - 0,0
20.09.2018 05:00:00 17,8 16,1 9 5 13 7 ONO 1021,5 8 0,0
20.09.2018 04:00:00 18,0 16,2 8 4 10 5 ONO 1021,9 - 0,0
20.09.2018 03:00:00 18,1 16,1 7 4 13 7 NNO 1022,0 - 0,0
20.09.2018 02:00:00 18,3 16,5 8 4 16 9 N 1022,1 7 0,0
20.09.2018 01:00:00 18,6 16,9 12 6 17 9 NNW 1022,1 - 0,0
20.09.2018 00:00:00 18,6 16,2 11 6 15 8 N 1022,1 - 0,0
19.09.2018 23:00:00 19,1 16,7 10 5 27 14 N 1022,0 7 0,0
19.09.2018 22:00:00 19,6 16,8 16 9 29 16 NNW 1021,8 - 0,0
19.09.2018 21:00:00 19,9 16,1 18 10 32 17 NNW 1021,0 - 0,0
19.09.2018 20:00:00 20,6 16,6 16 9 29 16 NNW 1020,9 7 0,0
19.09.2018 19:00:00 22,0 16,7 19 10 35 19 NNW 1021,0 - 0,0
19.09.2018 18:00:00 23,1 17,6 19 10 34 18 NNW 1021,0 - 0,0
19.09.2018 17:00:00 24,1 17,1 16 9 31 17 NNW 1020,9 - 0,0
19.09.2018 16:00:00 24,4 17,4 20 11 32 17 NNW 1021,4 - 0,0
19.09.2018 15:00:00 25,1 16,8 19 10 29 16 NNW 1021,7 - 0,0
19.09.2018 14:00:00 23,7 17,0 15 8 22 12 NW 1022,1 10 0,0
19.09.2018 13:00:00 24,0 17,0 11 6 17 9 WNW 1022,1 - 0,0
19.09.2018 12:00:00 23,4 16,9 7 4 11 6 W 1022,0 - 0,0
19.09.2018 11:00:00 22,3 16,6 2 1 10 6 ZO 1022,0 10 0,0
19.09.2018 10:00:00 20,7 16,5 6 3 9 5 ONO 1021,5 - 0,0
19.09.2018 09:00:00 19,0 16,6 4 2 9 5 ONO 1021,0 - 0,0
19.09.2018 08:00:00 18,9 17,0 6 4 14 7 ONO 1020,3 10 0,0
19.09.2018 07:00:00 18,7 17,5 11 6 14 7 NO 1019,9 - 0,0
19.09.2018 06:00:00 17,0 15,3 9 5 13 7 NNO 1019,7 - 0,0
19.09.2018 05:00:00 17,0 15,2 10 5 11 6 NO 1019,7 10 0,0
19.09.2018 04:00:00 17,8 15,8 9 5 12 7 NO 1019,6 - 0,0
19.09.2018 03:00:00 18,8 16,6 9 5 12 7 NNO 1020,2 - 0,0
19.09.2018 02:00:00 19,0 17,0 8 5 14 7 N 1020,2 7 0,0
19.09.2018 01:00:00 18,4 16,2 9 5 11 6 N 1019,9 - 0,0
19.09.2018 00:00:00 18,9 16,7 8 4 15 8 N 1019,4 - 0,0
18.09.2018 23:00:00 19,4 16,6 11 6 22 12 N 1019,1 7 0,0
18.09.2018 22:00:00 20,1 16,1 9 5 26 14 NNO 1018,5 - 0,0
18.09.2018 21:00:00 20,2 17,2 14 8 28 15 N 1018,0 - 0,0
18.09.2018 20:00:00 20,8 17,2 19 10 37 20 N 1017,3 7 0,0
18.09.2018 19:00:00 22,0 17,6 22 12 40 22 NNW 1016,7 - 0,0
18.09.2018 18:00:00 23,4 17,4 22 12 39 21 NNW 1016,4 - 0,0
18.09.2018 17:00:00 25,1 17,0 21 11 37 20 NNW 1016,6 12 0,0
18.09.2018 16:00:00 25,3 17,5 19 11 35 19 NNW 1016,5 - 0,0
18.09.2018 15:00:00 26,3 17,6 18 10 34 19 NNW 1016,6 - 0,0
18.09.2018 14:00:00 26,0 17,6 10 5 22 12 N 1016,9 15 0,0
18.09.2018 13:00:00 25,1 18,1 13 7 23 12 NNO 1017,0 - 0,0
18.09.2018 12:00:00 23,8 18,2 14 8 23 12 NO 1017,1 - 0,0
18.09.2018 11:00:00 22,5 17,8 11 6 20 11 NO 1017,2 7 0,0
18.09.2018 10:00:00 20,7 17,7 11 6 22 12 N 1016,8 - 0,0
18.09.2018 09:00:00 20,0 18,0 12 6 17 9 ONO 1015,7 - 0,0
18.09.2018 08:00:00 19,3 17,3 8 5 14 7 N 1016,1 15 0,0
18.09.2018 07:00:00 19,6 17,2 7 4 15 8 WNW 1015,8 - 0,0
18.09.2018 06:00:00 20,3 18,1 8 5 16 8 O 1015,3 - 0,0
18.09.2018 05:00:00 20,6 18,2 10 6 19 10 NNW 1014,3 10 0,0
18.09.2018 04:00:00 21,0 18,8 13 7 26 14 NNO 1014,4 - 0,0
18.09.2018 03:00:00 21,2 18,4 10 5 20 11 NW 1015,1 - 0,0
18.09.2018 02:00:00 21,0 18,0 13 7 34 18 WNW 1015,7 10 0,0
18.09.2018 01:00:00 21,2 17,6 29 15 36 20 W 1015,1 - 0,0
18.09.2018 00:00:00 21,5 16,7 24 13 43 23 W 1014,6 - 0,0
17.09.2018 23:00:00 20,9 15,2 5 3 18 10 O 1014,0 15 0,0
17.09.2018 22:00:00 21,8 15,6 12 6 18 10 NW 1013,6 - 0,0
17.09.2018 21:00:00 23,0 16,1 10 6 13 7 WNW 1012,9 - 0,0
17.09.2018 20:00:00 25,6 16,7 8 5 11 6 W 1012,3 25 0,0
17.09.2018 19:00:00 28,3 16,6 9 5 19 10 WZW 1012,7 - 0,0
17.09.2018 18:00:00 30,1 16,1 11 6 23 12 ZW 1013,0 - 0,0
17.09.2018 17:00:00 31,1 16,7 14 8 23 13 ZW 1013,4 25 0,0
17.09.2018 16:00:00 31,7 16,8 12 6 22 12 ZW 1013,8 - 0,0
17.09.2018 15:00:00 31,9 16,6 10 5 29 16 ZZW 1014,3 - 0,0
17.09.2018 14:00:00 29,4 16,9 13 7 26 14 ZO 1015,0 15 0,0
17.09.2018 13:00:00 26,3 17,6 14 8 27 15 OZO 1015,7 - 0,0
17.09.2018 12:00:00 23,5 17,3 13 7 21 11 OZO 1016,6 - 0,0
17.09.2018 11:00:00 21,6 16,8 5 3 26 14 ONO 1017,2 15 0,0
17.09.2018 10:00:00 19,0 16,2 13 7 23 12 ZO 1017,3 - 0,0
17.09.2018 09:00:00 17,5 16,2 11 6 21 12 ZO 1017,5 - 0,0
17.09.2018 08:00:00 16,0 14,9 10 6 18 10 OZO 1017,6 - 0,0
17.09.2018 07:00:00 15,5 14,4 7 4 13 7 O 1017,8 - 0,0
17.09.2018 06:00:00 14,9 13,4 8 4 11 6 O 1018,6 - 0,0
17.09.2018 05:00:00 14,6 13,0 6 4 9 5 ONO 1018,7 8 0,0
17.09.2018 04:00:00 15,2 13,7 2 1 7 4 NO 1019,2 - 0,0
17.09.2018 03:00:00 15,8 14,2 0 0 9 5 N 1019,4 - 0,0

tt = temperatuur
td = dauwpunt
ff = windsnelheid
fx = windstoten
dd = windrichting
ppp = luchtdruk
vv = zicht
rr = neerslag

Weerstations in de omgeving